Time,TemperatureF,DewpointF,PressureIn,WindDirection,WindDirectionDegrees,WindSpeedMPH,WindSpeedGustMPH,Humidity,HourlyPrecipIn,Conditions,Clouds,dailyrainin,SoftwareType,DateUTC
2013-05-12 00:00:00,77.4,46.9,29.96,West,278,1.0,3.0,34,0.00,,---,0.00,VWS V14.01,2013-05-12 07:00:00,
2013-05-12 00:05:00,77.5,47.0,29.96,West,279,1.0,3.0,34,0.00,,---,0.00,VWS V14.01,2013-05-12 07:05:00,
2013-05-12 00:10:00,77.3,46.0,29.96,West,259,3.0,3.0,33,0.00,,---,0.00,VWS V14.01,2013-05-12 07:10:00,
2013-05-12 00:15:00,77.6,46.2,29.96,West,274,1.0,4.0,33,0.00,,---,0.00,VWS V14.01,2013-05-12 07:15:00,
2013-05-12 00:20:00,77.5,46.2,29.96,West,271,3.0,4.0,33,0.00,,---,0.00,VWS V14.01,2013-05-12 07:20:00,
2013-05-12 00:25:00,77.5,45.3,29.96,West,262,1.0,4.0,32,0.00,,---,0.00,VWS V14.01,2013-05-12 07:25:00,
2013-05-12 00:30:00,77.7,44.7,29.96,WNW,291,4.0,6.0,31,0.00,,---,0.00,VWS V14.01,2013-05-12 07:30:00,
2013-05-12 00:35:00,77.7,44.7,29.96,West,277,4.0,6.0,31,0.00,,---,0.00,VWS V14.01,2013-05-12 07:35:00,
2013-05-12 00:40:00,77.8,44.8,29.96,WSW,250,6.0,6.0,31,0.00,,---,0.00,VWS V14.01,2013-05-12 07:40:00,
2013-05-12 00:45:00,77.9,44.0,29.96,West,273,4.0,7.0,30,0.00,,---,0.00,VWS V14.01,2013-05-12 07:45:00,
2013-05-12 00:50:00,77.9,44.0,29.96,NW,304,5.0,8.0,30,0.00,,---,0.00,VWS V14.01,2013-05-12 07:50:00,
2013-05-12 00:55:00,77.9,44.0,29.96,WNW,288,3.0,8.0,30,0.00,,---,0.00,VWS V14.01,2013-05-12 07:55:00,
2013-05-12 01:00:00,77.9,44.9,29.96,West,269,6.0,6.0,31,0.00,,---,0.00,VWS V14.01,2013-05-12 08:00:00,
2013-05-12 01:05:00,77.8,44.8,29.96,West,281,3.0,9.0,31,0.00,,---,0.00,VWS V14.01,2013-05-12 08:05:00,
2013-05-12 01:10:00,77.6,45.4,29.96,WNW,284,3.0,9.0,32,0.00,,---,0.00,VWS V14.01,2013-05-12 08:10:00,
2013-05-12 01:15:00,77.4,46.1,29.96,West,277,8.0,11.0,33,0.00,,---,0.00,VWS V14.01,2013-05-12 08:15:00,
2013-05-12 01:20:00,77.3,46.0,29.96,West,269,2.0,11.0,33,0.00,,---,0.00,VWS V14.01,2013-05-12 08:20:00,
2013-05-12 01:25:00,77.1,46.6,29.96,WNW,296,4.0,11.0,34,0.00,,---,0.00,VWS V14.01,2013-05-12 08:25:00,
2013-05-12 01:30:00,76.9,46.4,29.96,West,266,2.0,11.0,34,0.00,,---,0.00,VWS V14.01,2013-05-12 08:30:00,
2013-05-12 01:35:00,76.8,46.3,29.96,NW,316,3.0,11.0,34,0.00,,---,0.00,VWS V14.01,2013-05-12 08:35:00,
2013-05-12 01:40:00,76.7,46.2,29.96,West,277,2.0,11.0,34,0.00,,---,0.00,VWS V14.01,2013-05-12 08:40:00,
2013-05-12 01:45:00,76.6,46.9,29.96,WNW,297,4.0,11.0,35,0.00,,---,0.00,VWS V14.01,2013-05-12 08:45:00,
2013-05-12 01:50:00,76.6,46.9,29.96,WNW,301,2.0,11.0,35,0.00,,---,0.00,VWS V14.01,2013-05-12 08:50:00,
2013-05-12 01:55:00,76.6,47.7,29.96,WNW,301,3.0,11.0,36,0.00,,---,0.00,VWS V14.01,2013-05-12 08:55:00,
2013-05-12 02:00:00,76.4,47.5,29.96,WNW,296,4.0,5.0,36,0.00,,---,0.00,VWS V14.01,2013-05-12 09:00:00,
2013-05-12 02:05:00,76.6,47.7,29.96,West,269,3.0,8.0,36,0.00,,---,0.00,VWS V14.01,2013-05-12 09:05:00,
2013-05-12 02:10:00,76.6,47.7,29.95,WNW,285,1.0,8.0,36,0.00,,---,0.00,VWS V14.01,2013-05-12 09:10:00,
2013-05-12 02:15:00,76.4,46.8,29.95,West,266,6.0,8.0,35,0.00,,---,0.00,VWS V14.01,2013-05-12 09:15:00,
2013-05-12 02:20:00,76.5,47.6,29.95,WNW,284,7.0,11.0,36,0.00,,---,0.00,VWS V14.01,2013-05-12 09:20:00,
2013-05-12 02:25:00,76.6,47.7,29.95,WNW,294,4.0,13.0,36,0.00,,---,0.00,VWS V14.01,2013-05-12 09:25:00,
2013-05-12 02:30:00,76.5,47.6,29.95,WNW,283,6.0,13.0,36,0.00,,---,0.00,VWS V14.01,2013-05-12 09:30:00,
2013-05-12 02:35:00,76.4,47.5,29.95,WSW,258,3.0,13.0,36,0.00,,---,0.00,VWS V14.01,2013-05-12 09:35:00,
2013-05-12 02:40:00,76.6,46.9,29.95,West,259,5.0,13.0,35,0.00,,---,0.00,VWS V14.01,2013-05-12 09:40:00,
2013-05-12 02:45:00,76.7,47.0,29.95,West,271,4.0,13.0,35,0.00,,---,0.00,VWS V14.01,2013-05-12 09:45:00,
2013-05-12 02:50:00,76.6,46.2,29.95,WSW,243,3.0,13.0,34,0.00,,---,0.00,VWS V14.01,2013-05-12 09:50:00,
2013-05-12 02:55:00,76.6,46.2,29.95,WNW,283,2.0,13.0,34,0.00,,---,0.00,VWS V14.01,2013-05-12 09:55:00,
2013-05-12 03:00:00,76.4,46.8,29.95,WNW,294,3.0,3.0,35,0.00,,---,0.00,VWS V14.01,2013-05-12 10:00:00,
2013-05-12 03:05:00,76.2,46.6,29.95,WNW,301,1.0,4.0,35,0.00,,---,0.00,VWS V14.01,2013-05-12 10:05:00,
2013-05-12 03:10:00,76.0,46.4,29.95,WNW,297,1.0,4.0,35,0.00,,---,0.00,VWS V14.01,2013-05-12 10:10:00,
2013-05-12 03:15:00,75.8,46.2,29.95,WNW,291,3.0,6.0,35,0.00,,---,0.00,VWS V14.01,2013-05-12 10:15:00,
2013-05-12 03:20:00,75.6,46.0,29.95,WNW,297,2.0,6.0,35,0.00,,---,0.00,VWS V14.01,2013-05-12 10:20:00,
2013-05-12 03:25:00,75.3,45.8,29.95,WNW,287,1.0,6.0,35,0.00,,---,0.00,VWS V14.01,2013-05-12 10:25:00,
2013-05-12 03:30:00,75.1,46.3,29.95,West,269,0.0,6.0,36,0.00,,---,0.00,VWS V14.01,2013-05-12 10:30:00,
2013-05-12 03:35:00,75.0,45.5,29.95,West,269,1.0,6.0,35,0.00,,---,0.00,VWS V14.01,2013-05-12 10:35:00,
2013-05-12 03:40:00,74.9,46.2,29.95,SW,231,1.0,6.0,36,0.00,,---,0.00,VWS V14.01,2013-05-12 10:40:00,
2013-05-12 03:45:00,74.5,45.8,29.95,South,191,0.0,6.0,36,0.00,,---,0.00,VWS V14.01,2013-05-12 10:45:00,
2013-05-12 03:50:00,73.9,46.0,29.95,WSW,255,0.0,6.0,37,0.00,,---,0.00,VWS V14.01,2013-05-12 10:50:00,
2013-05-12 03:55:00,73.3,45.5,29.95,South,188,0.0,6.0,37,0.00,,---,0.00,VWS V14.01,2013-05-12 10:55:00,
2013-05-12 04:00:00,73.2,45.4,29.95,SSW,212,1.0,2.0,37,0.00,,---,0.00,VWS V14.01,2013-05-12 11:00:00,
2013-05-12 04:05:00,72.8,45.7,29.95,South,169,2.0,2.0,38,0.00,,---,0.00,VWS V14.01,2013-05-12 11:05:00,
2013-05-12 04:10:00,72.2,45.9,29.95,SSE,162,1.0,2.0,39,0.00,,---,0.00,VWS V14.01,2013-05-12 11:10:00,
2013-05-12 04:15:00,71.9,45.6,29.95,SSE,162,0.0,2.0,39,0.00,,---,0.00,VWS V14.01,2013-05-12 11:15:00,
2013-05-12 04:20:00,71.6,46.0,29.95,SSE,162,0.0,2.0,40,0.00,,---,0.00,VWS V14.01,2013-05-12 11:20:00,
2013-05-12 04:25:00,71.1,46.2,29.95,SSE,162,0.0,2.0,41,0.00,,---,0.00,VWS V14.01,2013-05-12 11:25:00,
2013-05-12 04:30:00,70.7,45.9,29.95,SSE,162,0.0,2.0,41,0.00,,---,0.00,VWS V14.01,2013-05-12 11:30:00,
2013-05-12 04:35:00,70.1,46.6,29.95,SSE,156,1.0,2.0,43,0.00,,---,0.00,VWS V14.01,2013-05-12 11:35:00,
2013-05-12 04:40:00,69.5,46.0,29.95,SSE,158,1.0,2.0,43,0.00,,---,0.00,VWS V14.01,2013-05-12 11:40:00,
2013-05-12 04:45:00,69.0,46.2,29.95,SSE,158,1.0,2.0,44,0.00,,---,0.00,VWS V14.01,2013-05-12 11:45:00,
2013-05-12 04:50:00,68.5,46.3,29.95,SSE,160,1.0,2.0,45,0.00,,---,0.00,VWS V14.01,2013-05-12 11:50:00,
2013-05-12 04:55:00,68.4,46.2,29.95,SSE,163,1.0,2.0,45,0.00,,---,0.00,VWS V14.01,2013-05-12 11:55:00,
2013-05-12 05:00:00,68.3,46.2,29.95,SSE,153,1.0,2.0,45,0.00,,---,0.00,VWS V14.01,2013-05-12 12:00:00,
2013-05-12 05:05:00,68.2,46.1,29.95,SSE,163,0.0,2.0,45,0.00,,---,0.00,VWS V14.01,2013-05-12 12:05:00,
2013-05-12 05:10:00,68.2,46.1,29.95,SSE,163,1.0,2.0,45,0.00,,---,0.00,VWS V14.01,2013-05-12 12:10:00,
2013-05-12 05:15:00,68.0,45.9,29.95,SSE,160,1.0,2.0,45,0.00,,---,0.00,VWS V14.01,2013-05-12 12:15:00,
2013-05-12 05:20:00,68.3,45.6,29.95,SSE,166,1.0,2.0,44,0.00,,---,0.00,VWS V14.01,2013-05-12 12:20:00,
2013-05-12 05:25:00,68.2,46.1,29.96,SSE,152,0.0,3.0,45,0.00,,---,0.00,VWS V14.01,2013-05-12 12:25:00,
2013-05-12 05:30:00,68.2,46.1,29.96,South,176,1.0,3.0,45,0.00,,---,0.00,VWS V14.01,2013-05-12 12:30:00,
2013-05-12 05:35:00,68.7,44.7,29.96,SW,231,1.0,3.0,42,0.00,,---,0.00,VWS V14.01,2013-05-12 12:35:00,
2013-05-12 05:40:00,69.9,45.2,29.96,SSW,200,1.0,3.0,41,0.00,,---,0.00,VWS V14.01,2013-05-12 12:40:00,
2013-05-12 05:45:00,69.7,45.0,29.96,SSE,151,0.0,3.0,41,0.00,,---,0.00,VWS V14.01,2013-05-12 12:45:00,
2013-05-12 05:50:00,69.0,45.6,29.96,SE,132,1.0,3.0,43,0.00,,---,0.00,VWS V14.01,2013-05-12 12:50:00,
2013-05-12 05:55:00,68.8,45.4,29.97,SE,134,1.0,3.0,43,0.00,,---,0.00,VWS V14.01,2013-05-12 12:55:00,
2013-05-12 06:00:00,68.7,45.9,29.97,SE,132,1.0,2.0,44,0.00,,---,0.00,VWS V14.01,2013-05-12 13:00:00,
2013-05-12 06:05:00,68.6,45.8,29.97,SE,137,1.0,2.0,44,0.00,,---,0.00,VWS V14.01,2013-05-12 13:05:00,
2013-05-12 06:10:00,68.6,45.8,29.97,SE,141,0.0,2.0,44,0.00,,---,0.00,VWS V14.01,2013-05-12 13:10:00,
2013-05-12 06:15:00,68.7,45.9,29.97,SE,131,0.0,2.0,44,0.00,,---,0.00,VWS V14.01,2013-05-12 13:15:00,
2013-05-12 06:20:00,69.2,45.8,29.98,SE,141,1.0,2.0,43,0.00,,---,0.00,VWS V14.01,2013-05-12 13:20:00,
2013-05-12 06:25:00,69.5,46.0,29.98,SE,134,0.0,2.0,43,0.00,,---,0.00,VWS V14.01,2013-05-12 13:25:00,
2013-05-12 06:30:00,69.4,46.0,29.98,SE,134,1.0,2.0,43,0.00,,---,0.00,VWS V14.01,2013-05-12 13:30:00,
2013-05-12 06:35:00,70.0,46.5,29.98,SE,136,1.0,2.0,43,0.00,,---,0.00,VWS V14.01,2013-05-12 13:35:00,
2013-05-12 06:40:00,70.8,47.2,29.98,SE,138,1.0,2.0,43,0.00,,---,0.00,VWS V14.01,2013-05-12 13:40:00,
2013-05-12 06:46:00,70.9,47.3,29.98,SE,132,0.0,2.0,43,0.00,,---,0.00,VWS V14.01,2013-05-12 13:46:00,
2013-05-12 06:51:00,71.3,47.7,29.98,SSE,148,1.0,2.0,43,0.00,,---,0.00,VWS V14.01,2013-05-12 13:51:00,
2013-05-12 06:56:00,72.3,48.6,29.98,SSE,148,0.0,2.0,43,0.00,,---,0.00,VWS V14.01,2013-05-12 13:56:00,
2013-05-12 07:01:00,73.1,49.3,29.98,SE,145,0.0,0.0,43,0.00,,---,0.00,VWS V14.01,2013-05-12 14:01:00,
2013-05-12 07:06:00,73.8,48.7,29.98,SE,143,0.0,0.0,41,0.00,,---,0.00,VWS V14.01,2013-05-12 14:06:00,
2013-05-12 07:11:00,74.5,49.3,29.98,SE,136,0.0,0.0,41,0.00,,---,0.00,VWS V14.01,2013-05-12 14:11:00,
2013-05-12 07:16:00,75.3,49.3,29.98,SE,137,0.0,0.0,40,0.00,,---,0.00,VWS V14.01,2013-05-12 14:16:00,
2013-05-12 07:21:00,76.4,50.3,29.98,SE,136,0.0,0.0,40,0.00,,---,0.00,VWS V14.01,2013-05-12 14:21:00,
2013-05-12 07:26:00,77.4,50.5,29.98,SE,137,0.0,0.0,39,0.00,,---,0.00,VWS V14.01,2013-05-12 14:26:00,
2013-05-12 07:31:00,78.4,50.0,29.98,SE,137,0.0,0.0,37,0.00,,---,0.00,VWS V14.01,2013-05-12 14:31:00,
2013-05-12 07:36:00,79.0,49.8,29.98,SE,136,0.0,0.0,36,0.00,,---,0.00,VWS V14.01,2013-05-12 14:36:00,
2013-05-12 07:41:00,79.1,49.9,29.98,ESE,103,0.0,1.0,36,0.00,,---,0.00,VWS V14.01,2013-05-12 14:41:00,
2013-05-12 07:46:00,79.1,49.1,29.98,ENE,75,0.0,2.0,35,0.00,,---,0.00,VWS V14.01,2013-05-12 14:46:00,
2013-05-12 07:51:00,79.2,49.2,29.98,East,89,1.0,2.0,35,0.00,,---,0.00,VWS V14.01,2013-05-12 14:51:00,
2013-05-12 07:56:00,79.1,48.3,29.98,NE,49,2.0,3.0,34,0.00,,---,0.00,VWS V14.01,2013-05-12 14:56:00,
2013-05-12 08:01:00,79.3,49.3,29.98,ENE,73,2.0,2.0,35,0.00,,---,0.00,VWS V14.01,2013-05-12 15:01:00,
2013-05-12 08:06:00,79.7,48.9,29.98,NE,51,3.0,3.0,34,0.00,,---,0.00,VWS V14.01,2013-05-12 15:06:00,
2013-05-12 08:11:00,79.9,49.0,29.98,ENE,66,2.0,3.0,34,0.00,,---,0.00,VWS V14.01,2013-05-12 15:11:00,
2013-05-12 08:16:00,80.3,48.6,29.98,NE,50,1.0,3.0,33,0.00,,---,0.00,VWS V14.01,2013-05-12 15:16:00,
2013-05-12 08:21:00,80.5,49.6,29.99,ENE,64,3.0,4.0,34,0.00,,---,0.00,VWS V14.01,2013-05-12 15:21:00,
2013-05-12 08:26:00,80.6,48.9,29.99,NE,47,2.0,4.0,33,0.00,,---,0.00,VWS V14.01,2013-05-12 15:26:00,
2013-05-12 08:31:00,80.9,48.3,29.99,NE,47,1.0,4.0,32,0.00,,---,0.00,VWS V14.01,2013-05-12 15:31:00,
2013-05-12 08:36:00,81.8,49.1,29.99,ESE,102,2.0,4.0,32,0.00,,---,0.00,VWS V14.01,2013-05-12 15:36:00,
2013-05-12 08:41:00,82.3,48.7,29.98,WNW,283,0.0,4.0,31,0.00,,---,0.00,VWS V14.01,2013-05-12 15:41:00,
2013-05-12 08:46:00,82.3,48.7,29.99,West,274,0.0,4.0,31,0.00,,---,0.00,VWS V14.01,2013-05-12 15:46:00,
2013-05-12 08:51:00,82.6,48.1,29.98,NNE,30,2.0,4.0,30,0.00,,---,0.00,VWS V14.01,2013-05-12 15:51:00,
2013-05-12 08:56:00,82.7,48.1,29.99,NNW,333,1.0,5.0,30,0.00,,---,0.00,VWS V14.01,2013-05-12 15:56:00,
2013-05-12 09:01:00,82.5,48.0,29.99,WNW,285,0.0,1.0,30,0.00,,---,0.00,VWS V14.01,2013-05-12 16:01:00,
2013-05-12 09:06:00,83.1,49.4,29.98,NNW,328,1.0,3.0,31,0.00,,---,0.00,VWS V14.01,2013-05-12 16:06:00,
2013-05-12 09:11:00,83.4,48.8,29.98,NE,40,1.0,3.0,30,0.00,,---,0.00,VWS V14.01,2013-05-12 16:11:00,
2013-05-12 09:16:00,83.5,47.0,29.98,NE,53,1.0,5.0,28,0.00,,---,0.00,VWS V14.01,2013-05-12 16:16:00,
2013-05-12 09:21:00,83.3,47.8,29.98,NE,44,0.0,5.0,29,0.00,,---,0.00,VWS V14.01,2013-05-12 16:21:00,
2013-05-12 09:26:00,84.2,47.6,29.98,ENE,63,1.0,5.0,28,0.00,,---,0.00,VWS V14.01,2013-05-12 16:26:00,
2013-05-12 09:31:00,84.1,45.5,29.98,East,84,2.0,5.0,26,0.00,,---,0.00,VWS V14.01,2013-05-12 16:31:00,
2013-05-12 09:36:00,84.3,45.7,29.98,East,91,0.0,5.0,26,0.00,,---,0.00,VWS V14.01,2013-05-12 16:36:00,
2013-05-12 09:41:00,84.8,46.1,29.98,NNE,25,3.0,5.0,26,0.00,,---,0.00,VWS V14.01,2013-05-12 16:41:00,
2013-05-12 09:46:00,84.8,45.1,29.98,NE,41,2.0,6.0,25,0.00,,---,0.00,VWS V14.01,2013-05-12 16:46:00,
2013-05-12 09:51:00,84.7,45.0,29.98,ENE,73,2.0,6.0,25,0.00,,---,0.00,VWS V14.01,2013-05-12 16:51:00,
2013-05-12 09:56:00,85.4,46.7,29.98,NNW,347,0.0,6.0,26,0.00,,---,0.00,VWS V14.01,2013-05-12 16:56:00,
2013-05-12 10:01:00,86.5,46.5,29.97,West,271,0.0,1.0,25,0.00,,---,0.00,VWS V14.01,2013-05-12 17:01:00,
2013-05-12 10:06:00,86.6,45.5,29.97,ENE,68,4.0,6.0,24,0.00,,---,0.00,VWS V14.01,2013-05-12 17:06:00,
2013-05-12 10:11:00,86.2,47.3,29.97,SW,226,0.0,6.0,26,0.00,,---,0.00,VWS V14.01,2013-05-12 17:11:00,
2013-05-12 10:16:00,86.3,46.4,29.97,WNW,301,2.0,6.0,25,0.00,,---,0.00,VWS V14.01,2013-05-12 17:16:00,
2013-05-12 10:21:00,86.2,45.2,29.97,NE,46,1.0,7.0,24,0.00,,---,0.00,VWS V14.01,2013-05-12 17:21:00,
2013-05-12 10:26:00,86.3,46.4,29.97,NNW,331,0.0,7.0,25,0.00,,---,0.00,VWS V14.01,2013-05-12 17:26:00,
2013-05-12 10:31:00,86.5,45.5,29.97,NNE,29,2.0,7.0,24,0.00,,---,0.00,VWS V14.01,2013-05-12 17:31:00,
2013-05-12 10:36:00,87.0,45.9,29.97,WNW,291,1.0,7.0,24,0.00,,---,0.00,VWS V14.01,2013-05-12 17:36:00,
2013-05-12 10:41:00,87.3,45.0,29.97,WNW,298,3.0,7.0,23,0.00,,---,0.00,VWS V14.01,2013-05-12 17:41:00,
2013-05-12 10:46:00,87.0,45.9,29.97,NNW,328,3.0,7.0,24,0.00,,---,0.00,VWS V14.01,2013-05-12 17:46:00,
2013-05-12 10:51:00,87.5,46.3,29.96,ESE,102,2.0,7.0,24,0.00,,---,0.00,VWS V14.01,2013-05-12 17:51:00,
2013-05-12 10:56:00,88.3,44.7,29.96,ESE,102,1.0,7.0,22,0.00,,---,0.00,VWS V14.01,2013-05-12 17:56:00,
2013-05-12 11:01:00,88.7,46.2,29.96,West,266,0.0,1.0,23,0.00,,---,0.00,VWS V14.01,2013-05-12 18:01:00,
2013-05-12 11:06:00,89.8,45.9,29.96,ESE,104,3.0,5.0,22,0.00,,---,0.00,VWS V14.01,2013-05-12 18:06:00,
2013-05-12 11:11:00,89.7,44.6,29.96,SW,229,3.0,5.0,21,0.00,,---,0.00,VWS V14.01,2013-05-12 18:11:00,
2013-05-12 11:16:00,89.8,44.7,29.96,East,82,0.0,6.0,21,0.00,,---,0.00,VWS V14.01,2013-05-12 18:16:00,
2013-05-12 11:21:00,89.6,44.5,29.96,NE,41,1.0,10.0,21,0.00,,---,0.00,VWS V14.01,2013-05-12 18:21:00,
2013-05-12 11:26:00,89.0,44.0,29.96,SSE,160,0.0,10.0,21,0.00,,---,0.00,VWS V14.01,2013-05-12 18:26:00,
2013-05-12 11:31:00,90.2,45.0,29.95,SE,141,1.0,10.0,21,0.00,,---,0.00,VWS V14.01,2013-05-12 18:31:00,
2013-05-12 11:36:00,91.0,43.1,29.95,SE,127,2.0,10.0,19,0.00,,---,0.00,VWS V14.01,2013-05-12 18:36:00,
2013-05-12 11:41:00,91.7,42.2,29.95,SSW,201,3.0,10.0,18,0.00,,---,0.00,VWS V14.01,2013-05-12 18:41:00,
2013-05-12 11:46:00,92.0,42.5,29.95,WSW,238,4.0,10.0,18,0.00,,---,0.00,VWS V14.01,2013-05-12 18:46:00,
2013-05-12 11:51:00,92.2,42.6,29.95,ENE,65,4.0,10.0,18,0.00,,---,0.00,VWS V14.01,2013-05-12 18:51:00,
2013-05-12 11:56:00,91.8,42.3,29.94,NNE,13,0.0,10.0,18,0.00,,---,0.00,VWS V14.01,2013-05-12 18:56:00,
2013-05-12 12:01:00,91.3,43.3,29.94,NW,322,2.0,5.0,19,0.00,,---,0.00,VWS V14.01,2013-05-12 19:01:00,
2013-05-12 12:06:00,91.1,41.7,29.94,NNW,329,2.0,11.0,18,0.00,,---,0.00,VWS V14.01,2013-05-12 19:06:00,
2013-05-12 12:11:00,91.0,38.6,29.94,ENE,60,4.0,11.0,16,0.00,,---,0.00,VWS V14.01,2013-05-12 19:11:00,
2013-05-12 12:16:00,91.1,37.1,29.94,NNE,13,5.0,11.0,15,0.00,,---,0.00,VWS V14.01,2013-05-12 19:16:00,
2013-05-12 12:21:00,91.2,35.4,29.93,WSW,256,1.0,11.0,14,0.00,,---,0.00,VWS V14.01,2013-05-12 19:21:00,
2013-05-12 12:26:00,91.1,33.5,29.93,South,190,2.0,11.0,13,0.00,,---,0.00,VWS V14.01,2013-05-12 19:26:00,
2013-05-12 12:32:00,92.0,32.2,29.93,East,98,2.0,11.0,12,0.00,,---,0.00,VWS V14.01,2013-05-12 19:32:00,
2013-05-12 12:37:00,92.5,32.6,29.93,NE,48,8.0,13.0,12,0.00,,---,0.00,VWS V14.01,2013-05-12 19:37:00,
2013-05-12 12:42:00,92.2,36.2,29.93,WNW,288,3.0,13.0,14,0.00,,---,0.00,VWS V14.01,2013-05-12 19:42:00,
2013-05-12 12:47:00,92.1,34.2,29.92,North,353,5.0,13.0,13,0.00,,---,0.00,VWS V14.01,2013-05-12 19:47:00,
2013-05-12 12:52:00,91.8,34.0,29.92,East,87,10.0,13.0,13,0.00,,---,0.00,VWS V14.01,2013-05-12 19:52:00,
2013-05-12 12:57:00,92.0,34.2,29.92,NNW,347,5.0,13.0,13,0.00,,---,0.00,VWS V14.01,2013-05-12 19:57:00,
2013-05-12 13:02:00,92.1,36.1,29.92,North,11,0.0,5.0,14,0.00,,---,0.00,VWS V14.01,2013-05-12 20:02:00,
2013-05-12 13:07:00,91.6,35.7,29.92,WNW,291,0.0,11.0,14,0.00,,---,0.00,VWS V14.01,2013-05-12 20:07:00,
2013-05-12 13:12:00,91.9,37.7,29.91,WNW,288,2.0,11.0,15,0.00,,---,0.00,VWS V14.01,2013-05-12 20:12:00,
2013-05-12 13:17:00,92.7,36.6,29.91,SE,132,7.0,11.0,14,0.00,,---,0.00,VWS V14.01,2013-05-12 20:17:00,
2013-05-12 13:22:00,93.1,35.0,29.91,SE,129,5.0,11.0,13,0.00,,---,0.00,VWS V14.01,2013-05-12 20:22:00,
2013-05-12 13:27:00,93.8,35.6,29.91,SE,146,5.0,11.0,13,0.00,,---,0.00,VWS V14.01,2013-05-12 20:27:00,
2013-05-12 13:32:00,93.7,35.5,29.91,SE,132,5.0,13.0,13,0.00,,---,0.00,VWS V14.01,2013-05-12 20:32:00,
2013-05-12 13:37:00,93.6,35.4,29.90,East,90,3.0,13.0,13,0.00,,---,0.00,VWS V14.01,2013-05-12 20:37:00,
2013-05-12 13:42:00,93.5,35.3,29.90,SE,130,4.0,16.0,13,0.00,,---,0.00,VWS V14.01,2013-05-12 20:42:00,
2013-05-12 13:47:00,93.8,35.6,29.90,SE,133,7.0,16.0,13,0.00,,---,0.00,VWS V14.01,2013-05-12 20:47:00,
2013-05-12 13:52:00,93.2,35.1,29.90,SE,129,5.0,17.0,13,0.00,,---,0.00,VWS V14.01,2013-05-12 20:52:00,
2013-05-12 13:57:00,93.1,35.0,29.90,South,181,7.0,17.0,13,0.00,,---,0.00,VWS V14.01,2013-05-12 20:57:00,
2013-05-12 14:02:00,93.7,35.5,29.90,ESE,110,9.0,9.0,13,0.00,,---,0.00,VWS V14.01,2013-05-12 21:02:00,
2013-05-12 14:07:00,94.3,34.0,29.89,East,94,7.0,11.0,12,0.00,,---,0.00,VWS V14.01,2013-05-12 21:07:00,
2013-05-12 14:12:00,93.8,33.6,29.89,WNW,285,0.0,11.0,12,0.00,,---,0.00,VWS V14.01,2013-05-12 21:12:00,
2013-05-12 14:17:00,93.4,35.3,29.89,NE,48,0.0,11.0,13,0.00,,---,0.00,VWS V14.01,2013-05-12 21:17:00,
2013-05-12 14:22:00,93.8,35.6,29.89,NE,44,8.0,12.0,13,0.00,,---,0.00,VWS V14.01,2013-05-12 21:22:00,
2013-05-12 14:27:00,94.4,36.0,29.88,East,79,10.0,14.0,13,0.00,,---,0.00,VWS V14.01,2013-05-12 21:27:00,
2013-05-12 14:32:00,94.6,36.2,29.88,ENE,69,2.0,14.0,13,0.00,,---,0.00,VWS V14.01,2013-05-12 21:32:00,
2013-05-12 14:37:00,94.5,36.1,29.88,East,98,16.0,17.0,13,0.00,,---,0.00,VWS V14.01,2013-05-12 21:37:00,
2013-05-12 14:42:00,93.9,33.6,29.88,NNE,23,3.0,17.0,12,0.00,,---,0.00,VWS V14.01,2013-05-12 21:42:00,
2013-05-12 14:47:00,94.3,36.0,29.87,SSE,158,8.0,17.0,13,0.00,,---,0.00,VWS V14.01,2013-05-12 21:47:00,
2013-05-12 14:52:00,94.7,34.3,29.87,South,188,7.0,17.0,12,0.00,,---,0.00,VWS V14.01,2013-05-12 21:52:00,
2013-05-12 14:57:00,94.6,34.2,29.87,South,171,8.0,17.0,12,0.00,,---,0.00,VWS V14.01,2013-05-12 21:57:00,
2013-05-12 15:02:00,94.9,34.4,29.87,SSW,207,1.0,8.0,12,0.00,,---,0.00,VWS V14.01,2013-05-12 22:02:00,
2013-05-12 15:07:00,94.8,38.2,29.87,East,79,0.0,8.0,14,0.00,,---,0.00,VWS V14.01,2013-05-12 22:07:00,
2013-05-12 15:12:00,95.0,36.5,29.86,SSW,212,3.0,8.0,13,0.00,,---,0.00,VWS V14.01,2013-05-12 22:12:00,
2013-05-12 15:17:00,94.4,34.0,29.86,NW,319,0.0,8.0,12,0.00,,---,0.00,VWS V14.01,2013-05-12 22:17:00,
2013-05-12 15:22:00,94.4,36.0,29.86,WSW,256,2.0,8.0,13,0.00,,---,0.00,VWS V14.01,2013-05-12 22:22:00,
2013-05-12 15:27:00,94.1,33.8,29.86,West,263,4.0,8.0,12,0.00,,---,0.00,VWS V14.01,2013-05-12 22:27:00,
2013-05-12 15:32:00,94.2,35.9,29.85,West,264,3.0,9.0,13,0.00,,---,0.00,VWS V14.01,2013-05-12 22:32:00,
2013-05-12 15:37:00,93.9,35.7,29.85,West,259,3.0,9.0,13,0.00,,---,0.00,VWS V14.01,2013-05-12 22:37:00,
2013-05-12 15:42:00,94.1,35.8,29.85,NW,304,6.0,9.0,13,0.00,,---,0.00,VWS V14.01,2013-05-12 22:42:00,
2013-05-12 15:47:00,94.3,36.0,29.85,WSW,254,4.0,9.0,13,0.00,,---,0.00,VWS V14.01,2013-05-12 22:47:00,
2013-05-12 15:52:00,94.7,39.9,29.85,SSE,163,5.0,15.0,15,0.00,,---,0.00,VWS V14.01,2013-05-12 22:52:00,
2013-05-12 15:57:00,94.5,39.8,29.85,SSW,212,6.0,15.0,15,0.00,,---,0.00,VWS V14.01,2013-05-12 22:57:00,
2013-05-12 16:02:00,94.3,39.6,29.84,SW,224,12.0,18.0,15,0.00,,---,0.00,VWS V14.01,2013-05-12 23:02:00,
2013-05-12 16:07:00,94.0,39.4,29.84,SW,224,11.0,18.0,15,0.00,,---,0.00,VWS V14.01,2013-05-12 23:07:00,
2013-05-12 16:12:00,93.8,39.2,29.84,South,180,7.0,18.0,15,0.00,,---,0.00,VWS V14.01,2013-05-12 23:12:00,
2013-05-12 16:17:00,93.4,40.5,29.84,SW,226,13.0,18.0,16,0.00,,---,0.00,VWS V14.01,2013-05-12 23:17:00,
2013-05-12 16:22:00,92.8,40.1,29.84,SW,217,6.0,18.0,16,0.00,,---,0.00,VWS V14.01,2013-05-12 23:22:00,
2013-05-12 16:27:00,92.4,39.8,29.84,SW,224,7.0,18.0,16,0.00,,---,0.00,VWS V14.01,2013-05-12 23:27:00,
2013-05-12 16:32:00,92.2,39.6,29.84,SW,217,8.0,18.0,16,0.00,,---,0.00,VWS V14.01,2013-05-12 23:32:00,
2013-05-12 16:37:00,92.4,39.8,29.83,WSW,246,10.0,18.0,16,0.00,,---,0.00,VWS V14.01,2013-05-12 23:37:00,
2013-05-12 16:42:00,92.3,41.2,29.83,WSW,242,16.0,19.0,17,0.00,,---,0.00,VWS V14.01,2013-05-12 23:42:00,
2013-05-12 16:47:00,92.0,41.0,29.83,SSW,204,7.0,19.0,17,0.00,,---,0.00,VWS V14.01,2013-05-12 23:47:00,
2013-05-12 16:52:00,91.7,42.2,29.83,SW,231,14.0,19.0,18,0.00,,---,0.00,VWS V14.01,2013-05-12 23:52:00,
2013-05-12 16:57:00,91.9,40.9,29.83,SSW,194,5.0,19.0,17,0.00,,---,0.00,VWS V14.01,2013-05-12 23:57:00,
2013-05-12 17:02:00,92.6,41.5,29.83,West,266,0.0,12.0,17,0.00,,---,0.00,VWS V14.01,2013-05-13 00:02:00,
2013-05-12 17:07:00,92.9,40.2,29.82,SW,222,9.0,18.0,16,0.00,,---,0.00,VWS V14.01,2013-05-13 00:07:00,
2013-05-12 17:12:00,93.0,41.8,29.83,SW,224,16.0,18.0,17,0.00,,---,0.00,VWS V14.01,2013-05-13 00:12:00,
2013-05-12 17:17:00,92.7,41.5,29.82,SSW,205,6.0,18.0,17,0.00,,---,0.00,VWS V14.01,2013-05-13 00:17:00,
2013-05-12 17:22:00,92.4,41.3,29.82,West,270,9.0,18.0,17,0.00,,---,0.00,VWS V14.01,2013-05-13 00:22:00,
2013-05-12 17:27:00,92.3,39.7,29.82,SSW,203,5.0,18.0,16,0.00,,---,0.00,VWS V14.01,2013-05-13 00:27:00,
2013-05-12 17:32:00,92.1,39.5,29.82,WSW,248,7.0,18.0,16,0.00,,---,0.00,VWS V14.01,2013-05-13 00:32:00,
2013-05-12 17:37:00,91.8,40.8,29.82,WSW,254,14.0,18.0,17,0.00,,---,0.00,VWS V14.01,2013-05-13 00:37:00,
2013-05-12 17:42:00,91.8,40.8,29.82,SW,228,8.0,18.0,17,0.00,,---,0.00,VWS V14.01,2013-05-13 00:42:00,
2013-05-12 17:47:00,92.1,41.1,29.82,SW,226,6.0,18.0,17,0.00,,---,0.00,VWS V14.01,2013-05-13 00:47:00,
2013-05-12 17:52:00,91.7,40.8,29.82,WNW,283,11.0,19.0,17,0.00,,---,0.00,VWS V14.01,2013-05-13 00:52:00,
2013-05-12 17:57:00,91.5,40.6,29.82,West,275,7.0,22.0,17,0.00,,---,0.00,VWS V14.01,2013-05-13 00:57:00,
2013-05-12 18:02:00,91.2,40.3,29.82,WSW,246,10.0,20.0,17,0.00,,---,0.00,VWS V14.01,2013-05-13 01:02:00,
2013-05-12 18:07:00,90.8,40.0,29.82,West,262,7.0,20.0,17,0.00,,---,0.00,VWS V14.01,2013-05-13 01:07:00,
2013-05-12 18:12:00,90.7,39.9,29.82,SW,226,14.0,20.0,17,0.00,,---,0.00,VWS V14.01,2013-05-13 01:12:00,
2013-05-12 18:17:00,90.5,39.8,29.82,WSW,243,6.0,20.0,17,0.00,,---,0.00,VWS V14.01,2013-05-13 01:17:00,
2013-05-12 18:23:00,90.3,39.6,29.82,SW,233,11.0,20.0,17,0.00,,---,0.00,VWS V14.01,2013-05-13 01:23:00,
2013-05-12 18:28:00,90.1,39.5,29.82,WSW,243,11.0,20.0,17,0.00,,---,0.00,VWS V14.01,2013-05-13 01:28:00,
2013-05-12 18:33:00,90.2,39.5,29.82,SW,233,4.0,20.0,17,0.00,,---,0.00,VWS V14.01,2013-05-13 01:33:00,
2013-05-12 18:38:00,90.1,37.9,29.83,SW,228,12.0,20.0,16,0.00,,---,0.00,VWS V14.01,2013-05-13 01:38:00,
2013-05-12 18:43:00,89.8,36.0,29.83,WSW,252,6.0,20.0,15,0.00,,---,0.00,VWS V14.01,2013-05-13 01:43:00,
2013-05-12 18:48:00,89.6,35.9,29.83,SW,235,11.0,20.0,15,0.00,,---,0.00,VWS V14.01,2013-05-13 01:48:00,
2013-05-12 18:53:00,89.3,35.6,29.83,West,281,12.0,20.0,15,0.00,,---,0.00,VWS V14.01,2013-05-13 01:53:00,
2013-05-12 18:58:00,89.1,35.5,29.83,SW,215,6.0,20.0,15,0.00,,---,0.00,VWS V14.01,2013-05-13 01:58:00,
2013-05-12 19:03:00,88.9,35.3,29.83,SW,219,10.0,12.0,15,0.00,,---,0.00,VWS V14.01,2013-05-13 02:03:00,
2013-05-12 19:08:00,88.6,35.1,29.83,WSW,254,5.0,13.0,15,0.00,,---,0.00,VWS V14.01,2013-05-13 02:08:00,
2013-05-12 19:13:00,88.5,35.0,29.83,WSW,245,6.0,13.0,15,0.00,,---,0.00,VWS V14.01,2013-05-13 02:13:00,
2013-05-12 19:18:00,88.1,36.3,29.83,SW,233,5.0,13.0,16,0.00,,---,0.00,VWS V14.01,2013-05-13 02:18:00,
2013-05-12 19:23:00,87.9,36.2,29.83,West,260,4.0,13.0,16,0.00,,---,0.00,VWS V14.01,2013-05-13 02:23:00,
2013-05-12 19:28:00,87.5,37.4,29.83,WSW,254,5.0,13.0,17,0.00,,---,0.00,VWS V14.01,2013-05-13 02:28:00,
2013-05-12 19:33:00,87.2,40.0,29.84,SW,236,7.0,13.0,19,0.00,,---,0.00,VWS V14.01,2013-05-13 02:33:00,
2013-05-12 19:38:00,86.8,39.6,29.84,West,270,5.0,13.0,19,0.00,,---,0.00,VWS V14.01,2013-05-13 02:38:00,
2013-05-12 19:43:00,86.5,39.4,29.84,West,263,2.0,13.0,19,0.00,,---,0.00,VWS V14.01,2013-05-13 02:43:00,
2013-05-12 19:48:00,86.0,39.0,29.84,West,279,6.0,13.0,19,0.00,,---,0.00,VWS V14.01,2013-05-13 02:48:00,
2013-05-12 19:53:00,85.5,39.9,29.84,WSW,250,8.0,13.0,20,0.00,,---,0.00,VWS V14.01,2013-05-13 02:53:00,
2013-05-12 19:58:00,85.2,40.9,29.84,West,269,6.0,14.0,21,0.00,,---,0.00,VWS V14.01,2013-05-13 02:58:00,
2013-05-12 20:03:00,84.9,41.9,29.84,WSW,245,5.0,13.0,22,0.00,,---,0.00,VWS V14.01,2013-05-13 03:03:00,
2013-05-12 20:08:00,84.7,41.7,29.84,WSW,243,6.0,13.0,22,0.00,,---,0.00,VWS V14.01,2013-05-13 03:08:00,
2013-05-12 20:13:00,84.4,42.6,29.84,WSW,243,6.0,13.0,23,0.00,,---,0.00,VWS V14.01,2013-05-13 03:13:00,
2013-05-12 20:18:00,84.0,44.4,29.84,West,275,5.0,13.0,25,0.00,,---,0.00,VWS V14.01,2013-05-13 03:18:00,
2013-05-12 20:23:00,83.6,44.1,29.84,West,278,2.0,13.0,25,0.00,,---,0.00,VWS V14.01,2013-05-13 03:23:00,
2013-05-12 20:28:00,83.3,44.9,29.84,West,267,7.0,13.0,26,0.00,,---,0.00,VWS V14.01,2013-05-13 03:28:00,
2013-05-12 20:33:00,83.2,45.8,29.84,West,266,8.0,13.0,27,0.00,,---,0.00,VWS V14.01,2013-05-13 03:33:00,
2013-05-12 20:38:00,83.1,45.7,29.85,WSW,258,7.0,14.0,27,0.00,,---,0.00,VWS V14.01,2013-05-13 03:38:00,
2013-05-12 20:43:00,82.9,46.5,29.85,WNW,290,5.0,14.0,28,0.00,,---,0.00,VWS V14.01,2013-05-13 03:43:00,
2013-05-12 20:48:00,82.8,46.4,29.85,West,269,4.0,14.0,28,0.00,,---,0.00,VWS V14.01,2013-05-13 03:48:00,
2013-05-12 20:53:00,82.5,47.1,29.85,WSW,257,9.0,14.0,29,0.00,,---,0.00,VWS V14.01,2013-05-13 03:53:00,
2013-05-12 20:58:00,82.3,46.9,29.85,WNW,285,5.0,14.0,29,0.00,,---,0.00,VWS V14.01,2013-05-13 03:58:00,
2013-05-12 21:01:00,82.1,47.6,29.85,West,280,4.0,9.0,30,0.00,,---,0.00,VWS V14.01,2013-05-13 04:01:00,
2013-05-12 21:02:00,82.0,47.5,29.85,West,269,10.0,10.0,30,0.00,,---,0.00,VWS V14.01,2013-05-13 04:02:00,
2013-05-12 21:03:00,81.9,47.5,29.85,WNW,283,9.0,11.0,30,0.00,,---,0.00,VWS V14.01,2013-05-13 04:03:00,
2013-05-12 21:08:00,81.8,47.4,29.85,WNW,284,5.0,14.0,30,0.00,,---,0.00,VWS V14.01,2013-05-13 04:08:00,
2013-05-12 21:09:00,81.8,47.4,29.85,West,267,2.0,14.0,30,0.00,,---,0.00,VWS V14.01,2013-05-13 04:09:00,
2013-05-12 21:14:00,81.6,47.2,29.85,SW,225,8.0,14.0,30,0.00,,---,0.00,VWS V14.01,2013-05-13 04:14:00,
2013-05-12 21:19:00,81.5,47.1,29.85,NW,308,6.0,14.0,30,0.00,,---,0.00,VWS V14.01,2013-05-13 04:19:00,
2013-05-12 21:20:00,81.5,47.1,29.86,West,274,6.0,14.0,30,0.00,,---,0.00,VWS V14.01,2013-05-13 04:20:00,
2013-05-12 21:25:00,81.5,47.1,29.85,West,281,5.0,14.0,30,0.00,,---,0.00,VWS V14.01,2013-05-13 04:25:00,
2013-05-12 21:30:00,81.5,47.1,29.86,NW,309,2.0,14.0,30,0.00,,---,0.00,VWS V14.01,2013-05-13 04:30:00,
2013-05-12 21:35:00,81.5,46.2,29.85,West,273,7.0,14.0,29,0.00,,---,0.00,VWS V14.01,2013-05-13 04:35:00,
2013-05-12 21:40:00,81.5,46.2,29.86,West,259,7.0,14.0,29,0.00,,---,0.00,VWS V14.01,2013-05-13 04:40:00,
2013-05-12 21:45:00,81.5,46.2,29.86,WNW,294,2.0,14.0,29,0.00,,---,0.00,VWS V14.01,2013-05-13 04:45:00,
2013-05-12 21:50:00,81.4,45.2,29.86,WNW,291,5.0,14.0,28,0.00,,---,0.00,VWS V14.01,2013-05-13 04:50:00,
2013-05-12 21:55:00,81.4,45.2,29.86,WSW,257,5.0,14.0,28,0.00,,---,0.00,VWS V14.01,2013-05-13 04:55:00,
2013-05-12 22:00:00,81.4,45.2,29.86,NW,312,2.0,8.0,28,0.00,,---,0.00,VWS V14.01,2013-05-13 05:00:00,
2013-05-12 22:05:00,81.4,45.2,29.86,WNW,290,7.0,14.0,28,0.00,,---,0.00,VWS V14.01,2013-05-13 05:05:00,
2013-05-12 22:10:00,81.3,44.2,29.86,WNW,283,4.0,14.0,27,0.00,,---,0.00,VWS V14.01,2013-05-13 05:10:00,
2013-05-12 22:15:00,81.4,44.2,29.86,NW,307,4.0,14.0,27,0.00,,---,0.00,VWS V14.01,2013-05-13 05:15:00,
2013-05-12 22:20:00,81.1,44.0,29.86,WNW,288,2.0,14.0,27,0.00,,---,0.00,VWS V14.01,2013-05-13 05:20:00,
2013-05-12 22:25:00,81.0,43.9,29.87,WSW,243,2.0,14.0,27,0.00,,---,0.00,VWS V14.01,2013-05-13 05:25:00,
2013-05-12 22:30:00,80.9,43.8,29.87,West,270,5.0,14.0,27,0.00,,---,0.00,VWS V14.01,2013-05-13 05:30:00,
2013-05-12 22:35:00,80.9,42.8,29.87,West,272,6.0,14.0,26,0.00,,---,0.00,VWS V14.01,2013-05-13 05:35:00,
2013-05-12 22:40:00,80.9,42.8,29.87,West,263,3.0,14.0,26,0.00,,---,0.00,VWS V14.01,2013-05-13 05:40:00,
2013-05-12 22:45:00,80.9,42.8,29.87,NW,315,6.0,14.0,26,0.00,,---,0.00,VWS V14.01,2013-05-13 05:45:00,
2013-05-12 22:50:00,80.8,41.7,29.87,West,264,7.0,14.0,25,0.00,,---,0.00,VWS V14.01,2013-05-13 05:50:00,
2013-05-12 22:55:00,80.9,41.8,29.86,West,271,6.0,14.0,25,0.00,,---,0.00,VWS V14.01,2013-05-13 05:55:00,
2013-05-12 23:00:00,80.9,40.8,29.86,West,264,6.0,7.0,24,0.00,,---,0.00,VWS V14.01,2013-05-13 06:00:00,
2013-05-12 23:05:00,80.8,40.7,29.86,WSW,243,9.0,10.0,24,0.00,,---,0.00,VWS V14.01,2013-05-13 06:05:00,
2013-05-12 23:10:00,80.7,40.6,29.87,WSW,256,3.0,10.0,24,0.00,,---,0.00,VWS V14.01,2013-05-13 06:10:00,
2013-05-12 23:15:00,80.7,40.6,29.87,West,278,8.0,10.0,24,0.00,,---,0.00,VWS V14.01,2013-05-13 06:15:00,
2013-05-12 23:20:00,80.7,40.6,29.87,West,281,2.0,10.0,24,0.00,,---,0.00,VWS V14.01,2013-05-13 06:20:00,
2013-05-12 23:25:00,80.7,40.6,29.87,West,277,4.0,10.0,24,0.00,,---,0.00,VWS V14.01,2013-05-13 06:25:00,
2013-05-12 23:30:00,80.6,40.5,29.87,WNW,288,7.0,10.0,24,0.00,,---,0.00,VWS V14.01,2013-05-13 06:30:00,
2013-05-12 23:35:00,80.8,39.6,29.86,West,270,4.0,10.0,23,0.00,,---,0.00,VWS V14.01,2013-05-13 06:35:00,
2013-05-12 23:40:00,80.8,39.6,29.86,WNW,283,5.0,10.0,23,0.00,,---,0.00,VWS V14.01,2013-05-13 06:40:00,
2013-05-12 23:45:00,80.8,39.6,29.86,WNW,288,4.0,12.0,23,0.00,,---,0.00,VWS V14.01,2013-05-13 06:45:00,
2013-05-12 23:50:00,80.8,39.6,29.86,WNW,283,10.0,12.0,23,0.00,,---,0.00,VWS V14.01,2013-05-13 06:50:00,
2013-05-12 23:55:00,80.8,39.6,29.86,West,263,2.0,12.0,23,0.00,,---,0.00,VWS V14.01,2013-05-13 06:55:00,